EW3714 Weather Reports


Display with metric or nautical units.
time (UTC)temp
F
wind
direction
speed
MPH
gust
MPH
rain 1hr
in
rain 24hr
in
rain mn
in
humidity
%
barometer
mb
20260901014643 90 297 0.0 0.0 0.00 0.00 0.00 46 1014.3
20260901014139 90 322 0.0 0.0 0.00 0.00 0.00 45 1014.3
20260901013635 90 322 0.0 0.0 0.00 0.00 0.00 46 1014.3
20260901013131 90 37 0.0 0.0 0.00 0.00 0.00 46 1014.4
20260901012630 91 37 0.0 0.0 0.00 0.00 0.00 44 1014.3
20260901012125 91 37 0.0 0.0 0.00 0.00 0.00 45 1014.2
20260901011622 91 326 0.0 0.0 0.00 0.00 0.00 44 1014.1
20260901011120 92 129 0.0 1.0 0.00 0.00 0.00 44 1014.0
20260901010616 92 336 0.0 0.0 0.00 0.00 0.00 44 1014.1
20260901010115 93 336 0.0 1.0 0.00 0.00 0.00 44 1014.1
20260901005614 93 326 0.0 0.0 0.00 0.00 0.00 45 1013.9
20260901005110 93 0 0.0 1.0 0.00 0.00 0.00 42 1014.0
20260901004609 93 322 0.0 0.0 0.00 0.00 0.00 42 1013.9
20260901004104 93 212 2.0 2.0 0.00 0.00 0.00 41 1014.0
20260901003559 94 62 0.0 0.0 0.00 0.00 0.00 42 1013.9
20260901003057 94 22 0.0 1.0 0.00 0.00 0.00 41 1014.0
20260901002552 94 13 0.0 0.0 0.00 0.00 0.00 41 1013.9
20260901002047 95 13 0.0 0.0 0.00 0.00 0.00 39 1013.9
20260901001542 95 13 0.0 0.0 0.00 0.00 0.00 40 1013.9
20260901001037 95 217 0.0 0.0 0.00 0.00 0.00 41 1013.8
20260901000532 95 15 0.0 1.0 0.00 0.00 0.00 41 1013.8
20260901000028 96 4 0.0 0.0 0.00 0.00 0.00 39 1013.9
20260831235521 96 0 0.0 1.0 0.00 0.00 0.00 38 1013.8
20260831235017 95 0 0.0 0.0 0.00 0.00 0.00 38 1013.8
20260831234516 95 322 0.0 1.0 0.00 0.00 0.00 39 1013.7
20260831234013 96 297 0.0 1.0 0.00 0.00 0.00 38 1013.9
20260831233507 96 327 1.0 1.0 0.00 0.00 0.00 38 1013.9
20260831233003 96 212 0.0 2.0 0.00 0.00 0.00 39 1013.8
20260831232458 96 25 0.0 1.0 0.00 0.00 0.00 39 1013.7
20260831231954 97 321 0.0 1.0 0.00 0.00 0.00 38 1013.9
20260831231450 97 315 0.0 1.0 0.00 0.00 0.00 37 1013.8
20260831230946 98 256 0.0 1.0 0.00 0.00 0.00 37 1014.0
20260831230441 99 17 2.0 3.0 0.00 0.00 0.00 37 1013.9
20260831225940 99 344 0.0 2.0 0.00 0.00 0.00 37 1014.0
20260831225437 99 331 0.0 2.0 0.00 0.00 0.00 37 1013.9
20260831224931 99 316 2.0 2.0 0.00 0.00 0.00 38 1013.9
20260831224431 99 280 0.0 1.0 0.00 0.00 0.00 38 1013.8
20260831223926 99 284 0.0 3.0 0.00 0.00 0.00 38 1014.0
20260831223421 99 166 0.0 2.0 0.00 0.00 0.00 38 1013.9
20260831222918 99 250 1.0 2.0 0.00 0.00 0.00 38 1013.9
20260831222414 99 269 0.0 1.0 0.00 0.00 0.00 38 1014.1
20260831221908 98 357 0.0 1.0 0.00 0.00 0.00 39 1014.1
20260831221404 97 282 0.0 2.0 0.00 0.00 0.00 39 1014.1
20260831220859 97 336 0.0 1.0 0.00 0.00 0.00 39 1014.1
20260831220355 97 275 0.0 1.0 0.00 0.00 0.00 40 1014.2
20260831215850 98 21 0.0 2.0 0.00 0.00 0.00 40 1014.3
20260831215345 100 230 2.0 2.0 0.00 0.00 0.00 39 1014.4
20260831214842 100 323 1.0 2.0 0.00 0.00 0.00 38 1014.4
20260831214339 100 310 0.0 2.0 0.00 0.00 0.00 37 1014.5
20260831213839 100 5 0.0 2.0 0.00 0.00 0.00 38 1014.5
20260831213336 100 15 0.0 2.0 0.00 0.00 0.00 39 1014.5
20260831212831 99 34 1.0 2.0 0.00 0.00 0.00 38 1014.5
20260831212328 100 354 0.0 3.0 0.00 0.00 0.00 38 1014.6
20260831211826 100 15 1.0 2.0 0.00 0.00 0.00 39 1015.0
20260831211321 101 331 2.0 3.0 0.00 0.00 0.00 38 1014.9
20260831210821 102 306 2.0 2.0 0.00 0.00 0.00 38 1015.0
20260831210317 104 19 1.0 2.0 0.00 0.00 0.00 37 1015.0
20260831205812 103 233 0.0 2.0 0.00 0.00 0.00 37 1015.1
20260831205308 102 329 0.0 4.0 0.00 0.00 0.00 37 1015.1
20260831204807 101 300 0.0 2.0 0.00 0.00 0.00 38 1015.3
20260831204307 100 331 1.0 1.0 0.00 0.00 0.00 39 1015.5
20260831203806 102 315 0.0 1.0 0.00 0.00 0.00 37 1015.5
20260831203301 104 25 0.0 2.0 0.00 0.00 0.00 36 1015.5
20260831202759 103 209 0.0 2.0 0.00 0.00 0.00 38 1015.8
20260831202255 104 10 0.0 2.0 0.00 0.00 0.00 37 1015.7
20260831201754 104 66 0.0 2.0 0.00 0.00 0.00 38 1015.8
20260831201253 104 1 2.0 3.0 0.00 0.00 0.00 38 1015.9
20260831200749 105 359 0.0 2.0 0.00 0.00 0.00 37 1016.1
20260831200244 103 229 0.0 2.0 0.00 0.00 0.00 38 1016.1
20260831195739 100 122 0.0 2.0 0.00 0.00 0.00 40 1016.1
20260831195235 100 230 1.0 2.0 0.00 0.00 0.00 40 1016.3
20260831194730 98 139 0.0 2.0 0.00 0.00 0.00 42 1016.4
20260831194226 102 36 0.0 2.0 0.00 0.00 0.00 39 1016.4
20260831193719 101 22 1.0 2.0 0.00 0.00 0.00 39 1016.4
20260831193214 101 336 2.0 2.0 0.00 0.00 0.00 40 1016.4
20260831192710 102 224 0.0 2.0 0.00 0.00 0.00 40 1016.5
20260831192205 103 252 0.0 1.0 0.00 0.00 0.00 38 1016.8
20260831191700 102 288 1.0 3.0 0.00 0.00 0.00 38 1016.8
20260831191156 102 28 1.0 2.0 0.00 0.00 0.00 39 1016.7
20260831190651 100 312 1.0 2.0 0.00 0.00 0.00 41 1016.8
20260831190151 102 334 0.0 2.0 0.00 0.00 0.00 39 1017.1
20260831185646 100 348 2.0 2.0 0.00 0.00 0.00 41 1016.9
20260831185141 100 347 0.0 3.0 0.00 0.00 0.00 43 1017.0
20260831184635 98 175 0.0 2.0 0.00 0.00 0.00 45 1017.2
20260831184131 99 302 2.0 2.0 0.00 0.00 0.00 43 1017.2
20260831183630 99 284 0.0 2.0 0.00 0.00 0.00 42 1017.2
20260831183129 97 336 3.0 3.0 0.00 0.00 0.00 46 1017.1
20260831182629 98 98 0.0 3.0 0.00 0.00 0.00 45 1017.2
20260831182125 99 311 2.0 3.0 0.00 0.00 0.00 43 1017.3
20260831181625 98 293 0.0 3.0 0.00 0.00 0.00 46 1017.3
20260831181119 98 53 0.0 3.0 0.00 0.00 0.00 45 1017.4
20260831180614 97 215 2.0 3.0 0.00 0.00 0.00 48 1017.5
20260831180109 98 8 0.0 2.0 0.00 0.00 0.00 47 1017.5
20260831175604 97 110 0.0 2.0 0.00 0.00 0.00 47 1017.3
20260831175101 98 233 0.0 2.0 0.00 0.00 0.00 46 1017.5
20260831174556 96 0 2.0 2.0 0.00 0.00 0.00 49 1018.0
20260831174056 95 69 0.0 3.0 0.00 0.00 0.00 51 1017.9
20260831173554 95 22 0.0 1.0 0.00 0.00 0.00 52 1017.8
20260831173051 93 50 0.0 3.0 0.00 0.00 0.00 54 1018.0
20260831172545 95 326 0.0 2.0 0.00 0.00 0.00 53 1018.0
20260831172045 93 288 0.0 3.0 0.00 0.00 0.00 53 1018.1
20260831171541 94 189 0.0 2.0 0.00 0.00 0.00 53 1018.0
20260831171038 94 345 0.0 2.0 0.00 0.00 0.00 55 1018.0
20260831170533 92 104 1.0 1.0 0.00 0.00 0.00 56 1018.2
20260831170031 91 230 0.0 2.0 0.00 0.00 0.00 58 1018.4
20260831165531 90 15 2.0 3.0 0.00 0.00 0.00 60 1018.4
20260831165028 90 193 0.0 2.0 0.00 0.00 0.00 59 1018.4
20260831164523 89 52 0.0 0.0 0.00 0.00 0.00 62 1018.2
20260831164019 89 55 0.0 4.0 0.00 0.00 0.00 61 1018.3
20260831163514 88 48 2.0 2.0 0.00 0.00 0.00 62 1018.3
20260831163009 87 205 0.0 1.0 0.00 0.00 0.00 64 1018.3
20260831162503 88 75 1.0 2.0 0.00 0.00 0.00 62 1018.2
20260831162001 87 158 1.0 3.0 0.00 0.00 0.00 67 1018.2
20260831161458 87 139 1.0 2.0 0.00 0.00 0.00 66 1018.1
20260831160958 86 38 0.0 2.0 0.00 0.00 0.00 70 1018.3
20260831160458 86 195 0.0 2.0 0.00 0.00 0.00 69 1018.2
20260831155953 85 64 1.0 1.0 0.00 0.00 0.00 71 1018.2
20260831155448 85 78 1.0 2.0 0.00 0.00 0.00 71 1018.3
20260831154944 86 215 0.0 2.0 0.00 0.00 0.00 72 1018.2
20260831154440 86 14 0.0 2.0 0.00 0.00 0.00 71 1018.2
20260831153939 85 142 2.0 2.0 0.00 0.00 0.00 71 1018.2
20260831153434 85 22 0.0 3.0 0.00 0.00 0.00 71 1018.2
20260831152931 85 22 0.0 2.0 0.00 0.00 0.00 71 1018.2
20260831152426 85 10 1.0 2.0 0.00 0.00 0.00 72 1018.0
20260831151921 85 234 0.0 3.0 0.00 0.00 0.00 72 1018.1
20260831151420 85 12 1.0 2.0 0.00 0.00 0.00 73 1018.1
20260831150915 84 305 0.0 2.0 0.00 0.00 0.00 74 1018.0
20260831150410 84 57 0.0 3.0 0.00 0.00 0.00 75 1017.9
20260831145909 84 340 0.0 3.0 0.00 0.00 0.00 75 1017.8
20260831145406 84 18 0.0 3.0 0.00 0.00 0.00 76 1018.0
20260831144901 84 88 2.0 2.0 0.00 0.00 0.00 78 1017.9
20260831144357 83 159 0.0 3.0 0.00 0.00 0.00 78 1017.9
20260831143852 83 28 2.0 2.0 0.00 0.00 0.00 79 1017.8
20260831143347 82 322 1.0 4.0 0.00 0.00 0.00 80 1017.9
20260831142843 82 89 0.0 2.0 0.00 0.00 0.00 81 1017.7
20260831142338 82 250 1.0 3.0 0.00 0.00 0.00 81 1017.9
20260831141837 82 302 1.0 1.0 0.00 0.00 0.00 82 1017.7
20260831141332 82 50 0.0 2.0 0.00 0.00 0.00 83 1017.7
20260831140827 81 46 0.0 2.0 0.00 0.00 0.00 84 1017.5
20260831140321 81 56 2.0 4.0 0.00 0.00 0.00 84 1017.5
20260831135820 81 32 1.0 2.0 0.00 0.00 0.00 86 1017.5
20260831135315 81 88 2.0 2.0 0.00 0.00 0.00 85 1017.6
20260831134810 81 84 0.0 1.0 0.00 0.00 0.00 87 1017.5
20260831134308 80 45 0.0 1.0 0.00 0.00 0.00 88 1017.4
20260831133807 80 43 0.0 2.0 0.00 0.00 0.00 89 1017.4
20260831133306 79 35 1.0 2.0 0.00 0.00 0.00 90 1017.4
20260831132801 79 62 0.0 2.0 0.00 0.00 0.00 90 1017.4
20260831132256 79 346 0.0 2.0 0.00 0.00 0.00 90 1017.3
20260831131756 79 66 1.0 1.0 0.00 0.00 0.00 90 1017.4
20260831131253 79 86 2.0 2.0 0.00 0.00 0.00 91 1017.4
20260831130747 79 251 1.0 2.0 0.00 0.00 0.00 91 1017.2
20260831130243 78 303 1.0 2.0 0.00 0.00 0.00 91 1017.0
20260831125741 78 11 2.0 2.0 0.00 0.00 0.00 92 1017.1
20260831125238 78 3 1.0 1.0 0.00 0.00 0.00 92 1017.0
20260831124737 78 354 0.0 1.0 0.00 0.00 0.00 92 1016.8
20260831124234 78 240 0.0 1.0 0.00 0.00 0.00 92 1017.1
20260831123729 78 298 0.0 1.0 0.00 0.00 0.00 92 1016.7
20260831123228 78 64 0.0 2.0 0.00 0.00 0.00 92 1016.9
20260831122727 78 37 0.0 2.0 0.00 0.00 0.00 92 1016.9
20260831122223 78 7 0.0 1.0 0.00 0.00 0.00 91 1016.7
20260831121722 78 253 0.0 1.0 0.00 0.00 0.00 91 1016.7
20260831121219 78 43 0.0 2.0 0.00 0.00 0.00 91 1016.8
20260831120714 78 352 0.0 1.0 0.00 0.00 0.00 91 1016.9
20260831120209 79 345 0.0 1.0 0.00 0.00 0.00 91 1016.7
20260831115704 79 89 0.0 1.0 0.00 0.00 0.00 91 1016.8
20260831115200 79 179 0.0 1.0 0.00 0.00 0.00 90 1016.9
20260831114659 79 269 0.0 2.0 0.00 0.00 0.00 90 1016.8
20260831114159 79 71 1.0 2.0 0.00 0.00 0.00 90 1016.8
20260831113654 79 145 0.0 1.0 0.00 0.00 0.00 89 1016.9
20260831113149 79 180 0.0 1.0 0.00 0.00 0.00 89 1016.9
20260831112648 79 212 0.0 2.0 0.00 0.00 0.00 89 1016.8
20260831112143 79 124 0.0 1.0 0.00 0.00 0.00 88 1016.8
20260831111639 79 32 0.0 2.0 0.00 0.00 0.00 89 1016.7
20260831111135 79 62 0.0 1.0 0.00 0.00 0.00 88 1016.6
20260831110630 79 230 0.0 2.0 0.00 0.00 0.00 88 1016.7
20260831110126 79 136 0.0 2.0 0.00 0.00 0.00 88 1016.6
20260831105624 80 117 1.0 3.0 0.00 0.00 0.00 87 1016.6
20260831105119 80 135 0.0 2.0 0.00 0.00 0.00 88 1016.4
20260831104615 80 33 1.0 2.0 0.00 0.00 0.00 88 1016.5
20260831104111 80 11 0.0 1.0 0.00 0.00 0.00 88 1016.5
20260831103606 80 89 0.0 2.0 0.00 0.00 0.00 88 1016.4
20260831103057 80 25 0.0 2.0 0.00 0.00 0.00 88 1016.3
20260831102555 80 230 0.0 2.0 0.00 0.00 0.00 87 1016.6
20260831102051 80 18 1.0 2.0 0.00 0.00 0.00 88 1016.4
20260831101545 80 120 1.0 1.0 0.00 0.00 0.00 87 1016.5
20260831101042 80 345 1.0 2.0 0.00 0.00 0.00 87 1016.7
20260831100537 80 351 0.0 3.0 0.00 0.00 0.00 87 1016.7
20260831100034 80 296 0.0 3.0 0.00 0.00 0.00 87 1016.8
20260831095532 80 335 1.0 3.0 0.00 0.00 0.00 87 1016.8
20260831095032 80 238 0.0 2.0 0.00 0.00 0.00 86 1016.7
20260831094528 80 30 1.0 2.0 0.00 0.00 0.00 86 1016.7
20260831094025 80 269 0.0 2.0 0.00 0.00 0.00 86 1016.7
20260831093524 80 211 0.0 2.0 0.00 0.00 0.00 86 1016.7
20260831093021 80 17 0.0 1.0 0.00 0.00 0.00 86 1016.6
20260831092516 80 100 0.0 4.0 0.00 0.00 0.00 86 1016.6
20260831092012 80 18 2.0 3.0 0.00 0.00 0.00 86 1016.5
20260831091507 80 333 1.0 3.0 0.00 0.00 0.00 86 1016.4
20260831091002 80 79 0.0 2.0 0.00 0.00 0.00 86 1016.3
20260831090458 80 89 0.0 1.0 0.00 0.00 0.00 85 1016.4
20260831085953 80 60 0.0 2.0 0.00 0.00 0.00 86 1016.5
20260831085449 80 75 0.0 2.0 0.00 0.00 0.00 85 1016.5
20260831084948 80 89 0.0 0.0 0.00 0.00 0.00 85 1016.4
20260831084444 80 358 1.0 2.0 0.00 0.00 0.00 85 1016.3
20260831083941 80 99 1.0 2.0 0.00 0.00 0.00 85 1016.5
20260831083436 80 73 1.0 2.0 0.00 0.00 0.00 85 1016.5
20260831082935 80 72 1.0 3.0 0.00 0.00 0.00 86 1016.5
20260831082435 80 353 2.0 3.0 0.00 0.00 0.00 85 1016.6
20260831081930 80 269 0.0 2.0 0.00 0.00 0.00 84 1016.7
20260831081426 80 14 2.0 3.0 0.00 0.00 0.00 84 1016.7
20260831080922 80 348 0.0 2.0 0.00 0.00 0.00 84 1016.8
20260831080417 80 220 0.0 3.0 0.00 0.00 0.00 84 1016.7
20260831075912 81 331 2.0 2.0 0.00 0.00 0.00 83 1016.6
20260831075408 81 359 2.0 3.0 0.00 0.00 0.00 83 1016.7
20260831074903 81 323 1.0 3.0 0.00 0.00 0.00 82 1016.7
20260831074402 81 64 0.0 3.0 0.00 0.00 0.00 80 1016.8
20260831073857 81 337 0.0 2.0 0.00 0.00 0.00 79 1016.5
20260831073356 81 35 1.0 2.0 0.00 0.00 0.00 79 1016.7
20260831072851 81 32 1.0 3.0 0.00 0.00 0.00 78 1016.8
20260831072347 81 0 0.0 1.0 0.00 0.00 0.00 77 1016.5
20260831071843 81 147 0.0 2.0 0.00 0.00 0.00 77 1016.7
20260831071342 82 69 0.0 2.0 0.00 0.00 0.00 78 1016.6
20260831070837 82 352 0.0 2.0 0.00 0.00 0.00 77 1016.7
20260831070336 82 22 1.0 2.0 0.00 0.00 0.00 76 1016.7
20260831065835 82 359 0.0 3.0 0.00 0.00 0.00 76 1016.7
20260831065333 82 32 1.0 2.0 0.00 0.00 0.00 76 1016.8
20260831064828 82 304 0.0 3.0 0.00 0.00 0.00 75 1016.9
20260831064324 82 333 0.0 3.0 0.00 0.00 0.00 75 1016.8
20260831063820 82 9 2.0 2.0 0.00 0.00 0.00 75 1016.8
20260831063315 83 104 0.0 2.0 0.00 0.00 0.00 76 1016.8
20260831062814 83 55 0.0 2.0 0.00 0.00 0.00 75 1016.9
20260831062310 83 242 1.0 3.0 0.00 0.00 0.00 73 1016.7
20260831061809 83 61 0.0 1.0 0.00 0.00 0.00 73 1016.8
20260831061308 83 49 0.0 0.0 0.00 0.00 0.00 72 1016.7
20260831060805 83 5 0.0 1.0 0.00 0.00 0.00 72 1016.7
20260831060304 83 15 0.0 1.0 0.00 0.00 0.00 72 1016.7
20260831055804 83 29 0.0 0.0 0.00 0.00 0.00 72 1016.7
20260831055259 83 11 0.0 0.0 0.00 0.00 0.00 71 1016.5
20260831054754 84 37 0.0 0.0 0.00 0.00 0.00 71 1016.5
20260831054249 84 50 0.0 0.0 0.00 0.00 0.00 70 1016.4
20260831053748 84 22 0.0 0.0 0.00 0.00 0.00 70 1016.4
20260831053247 84 359 2.0 2.0 0.00 0.00 0.00 69 1016.4
20260831052742 84 32 0.0 1.0 0.00 0.00 0.00 70 1016.5
20260831052241 85 113 0.0 0.0 0.00 0.00 0.00 68 1016.4
20260831051739 85 57 0.0 2.0 0.00 0.00 0.00 69 1016.3
20260831051238 85 59 1.0 2.0 0.00 0.00 0.00 70 1016.1
20260831050733 85 55 0.0 2.0 0.00 0.00 0.00 68 1016.3
20260831050231 85 39 1.0 2.0 0.00 0.00 0.00 67 1016.2
20260831045726 86 6 0.0 0.0 0.00 0.00 0.00 66 1016.2
20260831045226 86 32 0.0 3.0 0.00 0.00 0.00 66 1016.2
20260831044721 86 284 0.0 2.0 0.00 0.00 0.00 65 1015.9
20260831044216 86 230 0.0 1.0 0.00 0.00 0.00 65 1015.8
20260831043712 86 174 0.0 2.0 0.00 0.00 0.00 64 1016.0
20260831043207 86 195 0.0 2.0 0.00 0.00 0.00 64 1016.1
20260831042706 86 193 2.0 4.0 0.00 0.00 0.00 64 1016.0
20260831042201 86 50 0.0 1.0 0.00 0.00 0.00 63 1015.9
20260831041656 87 22 0.0 2.0 0.00 0.00 0.00 62 1016.0
20260831041156 87 354 1.0 1.0 0.00 0.00 0.00 62 1016.3
20260831040651 87 231 0.0 4.0 0.00 0.00 0.00 61 1016.3
20260831040150 87 218 0.0 1.0 0.00 0.00 0.00 61 1016.2
20260831035650 87 352 0.0 2.0 0.00 0.00 0.00 61 1016.1
20260831035149 87 23 1.0 2.0 0.00 0.00 0.00 60 1016.1
20260831034648 87 0 0.0 2.0 0.00 0.00 0.00 60 1016.0
20260831034144 88 326 0.0 1.0 0.00 0.00 0.00 60 1016.0
20260831033639 88 172 0.0 3.0 0.00 0.00 0.00 59 1015.8
20260831033134 88 188 0.0 2.0 0.00 0.00 0.00 59 1015.8
20260831032634 88 113 0.0 2.0 0.00 0.00 0.00 60 1015.7
20260831032130 88 205 0.0 1.0 0.00 0.00 0.00 59 1015.8
20260831031630 88 354 0.0 1.0 0.00 0.00 0.00 60 1015.5
20260831031129 88 322 0.0 0.0 0.00 0.00 0.00 59 1015.6
20260831030628 88 333 0.0 2.0 0.00 0.00 0.00 59 1015.4
20260831030127 88 25 0.0 1.0 0.00 0.00 0.00 58 1015.4
20260831025626 88 12 2.0 2.0 0.00 0.00 0.00 58 1015.2
20260831025121 89 309 0.0 1.0 0.00 0.00 0.00 58 1015.3
20260831024617 89 29 0.0 2.0 0.00 0.00 0.00 59 1015.2
20260831024116 89 0 1.0 1.0 0.00 0.00 0.00 58 1015.2
20260831023609 89 343 0.0 1.0 0.00 0.00 0.00 58 1015.0
20260831023108 89 1 0.0 2.0 0.00 0.00 0.00 57 1014.9
20260831022602 89 352 0.0 2.0 0.00 0.00 0.00 58 1014.9
20260831022058 90 311 0.0 2.0 0.00 0.00 0.00 57 1014.4
20260831021557 90 325 0.0 2.0 0.00 0.00 0.00 57 1014.6
20260831021053 90 325 1.0 2.0 0.00 0.00 0.00 56 1014.5
20260831020548 90 269 0.0 2.0 0.00 0.00 0.00 56 1014.4
20260831020043 90 32 0.0 2.0 0.00 0.00 0.00 55 1014.4
20260831015538 91 320 0.0 1.0 0.00 0.00 0.00 54 1014.2
20260831015033 91 6 0.0 2.0 0.00 0.00 0.00 52 1014.3